Volver al catálogo

EUTE 2-F3

ActivoComunicacionesGEO
NORAD 21803·PAYLOAD·🇪🇺 EU

Lanzado Dec 7, 1991 desde Cape Canaveral Space Force Station

Loading…

TLE

ActualizadoSource: Space-Track

Época: Sep 14, 2026, 08:10 UTC

1 21803U 91083A   26257.34033163 -.00000005  00000-0  00000-0 0  9996
2 21803  14.8172   0.9520 0003335 232.3873 136.8153  0.99295630122451

Sigue EUTE 2-F3 en tiempo real con AllMySat

Download on the App Store